Back to catalog

STARLINK-30613

AliveCommunicationsVLEO
NORAD 58077·PAYLOAD·🇺🇸 United States

Launched Oct 18, 2023 from Cape Canaveral Space Force Station

Loading…

Next Passes (next 24 hours)

TLE

FreshSource: CelesTrak SupGP

Epoch: Sep 15, 2026, 02:56 UTC

1 58077C 23160C   26258.12270833  .00001253  00000+0  45365-4 0  2583
2 58077  42.9997  87.9948 0001439 272.0257 248.3278 15.27583204    18

Track STARLINK-30613 in real time with AllMySat

Download on the App Store